Username
Password
 
Info Terbaru :
  

Jackpot hanya dapat di beli di awal sebelum periode tersebut berjalan dan jika berhasil maka anda dapat melihat di sisi kiri bawah atau kiri atas akan terdapat notifikasi bahwa jackpot anda berhasil di beli.

Jika anda membeli jackpot di tengah permainan maka pembelian jackpot akan berlaku untuk periode selanjutnya.

Jackpot Winner Domino

Ikutilah global jackpot yang tersedia di system kami, dengan system jackpot terbaru dan pertama di indonesia, anda dapat membeli jackpot dengan harga 100 rupiah saja dan menangkan hadiahnya hingga puluhan juta rupiah.

Jackpot bukanlah suatu keharusan untuk dibeli, namun kami memberikan suatu fitur tambahan untuk member tercinta dari www.logindp.com.

Terdapat tiga pilihan harga jackpot yang bisa anda beli yaitu :100,500 dan 1000 rupiah.

Hadiah dari Multi jackpot system www.logindp.com

  1. Murni Kecil x 50 harga jackpot yang anda beli.
      (contoH:anda membeli 1000 maka:1000 X 50 = 50.000)
  2. Murni Besar x 50 harga jackpot yang anda beli
      (contoH:anda membeli 1000 maka:1000 X 50 = 50.000)
  3. BALAK x 100 harga jackpot yang anda beli
      (contoH:anda membeli 1000 maka:1000 X 100 = 100.000)
  4. ENAM DEWA x 6666 harga jackpot yang anda beli
      (contoH:anda membeli 1000 maka:1000 X 6666 = 6.666.000)

Demikian adalah penjelasan dari Multi Jackpot www.logindp.com terima kasih dan selamat bermain salam hoki dari kami


Jackpot Winner

TOP ENAM DEWA
No. Tanggal Nama Price Win
1 25/09 03:00 TEMPUYAK90 murni enam 3,333,000
2 25/09 02:56 MULLAH murni enam 3,333,000
3 24/09 23:14 SUTRIS80 murni enam 666,600
4 24/09 22:52 LAELADEWI murni enam 3,333,000
5 24/09 22:36 DODOR21 murni enam 666,600
TOP BALAK
No. Tanggal Nama Price Win
1 25/09 06:09 IBP89701 balak 100,000
2 25/09 06:05 MUFAALFA balak 50,000
3 25/09 05:45 BAOT99TROS balak 10,000
4 25/09 05:42 RANDYANSAH balak 10,000
5 25/09 05:39 RRAY17 balak 10,000
LATEST JACKPOT
No. Tanggal Nama Price Win
1 25/09 06:14 Y42DI murni kecil 50,000
2 25/09 06:14 THEKING10 murni kecil 50,000
3 25/09 06:13 BOMBAY285 murni besar 50,000
4 25/09 06:12 INDRIPUTRI murni besar 25,000
5 25/09 06:11 GALANK lucky99 50,000
6 25/09 06:11 KHAY94 murni besar 25,000
7 25/09 06:11 RUDI0409 murni besar 50,000
8 25/09 06:10 IDK896243 murni kecil 25,000
9 25/09 06:09 BENTENG6 murni besar 50,000
10 25/09 06:09 O0JZKLJ9M1 murni besar 50,000
11 25/09 06:09 SOUL9 murni besar 50,000
12 25/09 06:09 IBP89701 balak 100,000
13 25/09 06:07 SYAM168 murni besar 5,000
14 25/09 06:06 WCUMUM27 murni besar 5,000
15 25/09 06:06 DENDICS9 murni besar 50,000
16 25/09 06:05 MUFAALFA balak 50,000
17 25/09 06:03 WAWA1982 murni besar 25,000
18 25/09 06:02 P4LL4K4 murni kecil 50,000
19 25/09 06:02 SKABRIOTS murni kecil 50,000
20 25/09 06:02 JHAY1212 murni besar 25,000
21 25/09 06:01 DENDICS9 murni besar 50,000
22 25/09 06:01 WAWA1982 murni kecil 25,000
23 25/09 05:56 AKI60AJ4S murni kecil 25,000
24 25/09 05:55 KENTHUZ661 murni besar 25,000
25 25/09 05:51 ARYA133 murni besar 25,000
26 25/09 05:48 CEMPLUND murni kecil 50,000
27 25/09 05:48 TOP747 murni kecil 5,000
28 25/09 05:45 BAOT99TROS balak 10,000
29 25/09 05:45 KUBU013 murni besar 5,000
30 25/09 05:45 ARWA666 murni besar 5,000
31 25/09 05:44 DHAR_JHO murni kecil 50,000
32 25/09 05:42 RANDYANSAH balak 10,000
33 25/09 05:40 SURAHMAN25 murni kecil 50,000
34 25/09 05:40 LADINDA07 murni kecil 25,000
35 25/09 05:39 RRAY17 balak 10,000
36 25/09 05:39 ANDHI23 murni besar 50,000
37 25/09 05:38 AFIATA312 balak 10,000
38 25/09 05:37 BRAHEEM789 murni kecil 5,000
39 25/09 05:37 DED3112 balak 100,000
40 25/09 05:37 ASHI13 murni besar 50,000
41 25/09 05:36 A0AA5519 murni besar 5,000
42 25/09 05:35 GUGUNJEK lucky99 2,500
43 25/09 05:33 C7DD0A5E murni besar 5,000
44 25/09 05:32 DB88D314 lucky99 2,500
45 25/09 05:31 BENTENG6 murni besar 50,000
46 25/09 05:28 CIPUY78 murni kecil 50,000
47 25/09 05:28 ODOYHENG murni besar 25,000
48 25/09 05:27 DEJAVU910 murni besar 50,000
49 25/09 05:27 DANI7511 balak 10,000
50 25/09 05:24 CEMPLUND murni kecil 50,000


Situs Poker Online
Dewapoker.com Hadir untuk semua pecinta permainan kartu poker online yang khususnya berada di asia. Dengan system teknology baru dan server kecepatan tinggi akan membuat permainan poker anda lebih seru dan menarik bersama teman2x anda maupun saingan anda. Cukup lakukan login dan langsung bermain tanpa download. Dewapoker.com dengan encrypsi server yang tinggi akan menjamin keamanan data para member.
Terms & Conditions Link Alternatif Video Dewapoker
© Copyright 2018 Dewa Poker. All right reserved.
Dewa.FM